Weather in Vachkovo

Russia / Smolensk Oblast     54°50′49″N   32°33′07″E
temp.,
°C
wind,
m/s
gust,
m/s
humid.,
%
clouds,
%
prec.,
mm/h
press.,
hPa
HPBL,
m
9 march, tue
tue900:00−12nnw369426 0.0 1014147
03:00−14nnw349526 0.0 101681
06:00−15nw339541 0.0 101776
09:00−13nnw369230 0.0 1019243
12:00−9nnw468052 0.0 1020811
15:00−8nnw457776 0.1 10211018
18:00−9nnw2486100 0.1 1021182
21:00−13nw228984 0.1 102420
10 march, wed
wed1000:00−14wnw119025 0.0 102420
03:00−13sw129062 0.0 102524
06:00−11s2495100 0.4 1024180
09:00−9s2494100 2.4 1025262
12:00−6e2392100 1.6 1025279
15:00−8ene5792100 2.2 1026414
18:00−10e4793100 0.4 1026486
21:00−12e4893100 0.6 1029378
11 march, thu
thu1100:00−15ese498399 0.1 1030337
03:00−18ese379285 0.1 1032162
06:00−19ese369071 0.0 1032147
09:00−18se368552 0.0 1032239
12:00−12se35862 0.0 1031349
15:00−9sse468533 0.0 1031497
18:00−10sse379194 0.0 1029275
21:00−13sse499479 0.0 1030212
12 march, fri
fri1200:00−14sse499688 0.0 1029232
03:00−14sse4119591 0.1 1028268
06:00−14sse51294100 0.0 1027309
09:00−11sse6148799 0.0 1025444
12:00−5s81578100 0.0 1022857
15:00−4s91576100 0.0 10201088
18:00−5s91686100 0.1 10191044
21:00−6s91791100 1.0 10171014
13 march, sat
sat1300:00−6s91693100 1.4 1015999
03:00−4s81693100 3.2 1014755
06:00−2ssw71296100 1.2 1014443
09:000sw5109399 1.9 1015559
12:00+1ssw51099100 0.0 1015540
15:00+1ssw51198100 0.0 1015597
18:00+1s61295100 0.0 1014623
21:00+1s61394100 0.0 1014630